Year,Month,Day,Hour,Minute,Value (Times are PST for temperature in C)
2017,06,23,08,16,17.30
2017,06,23,08,17,17.20
2017,06,23,08,18,17.20
2017,06,23,08,19,17.30
2017,06,23,08,20,17.30
2017,06,23,08,21,17.50
2017,06,23,08,22,17.50
2017,06,23,08,23,17.60
2017,06,23,08,24,17.70
2017,06,23,08,25,17.70
2017,06,23,08,26,17.70
2017,06,23,08,27,17.80
2017,06,23,08,28,17.80
2017,06,23,08,29,17.80
2017,06,23,08,30,17.80
2017,06,23,08,31,17.90
2017,06,23,08,32,17.90
2017,06,23,08,33,18.00
2017,06,23,08,34,18.00
2017,06,23,08,35,18.00
2017,06,23,08,36,17.90
2017,06,23,08,37,17.90
2017,06,23,08,38,17.90
2017,06,23,08,39,17.90
2017,06,23,08,40,18.00
2017,06,23,08,41,18.00
2017,06,23,08,42,18.00
2017,06,23,08,43,18.00
2017,06,23,08,44,18.00
2017,06,23,08,45,18.00
2017,06,23,08,46,18.00
2017,06,23,08,47,18.10
2017,06,23,08,48,18.20
2017,06,23,08,49,18.10
2017,06,23,08,50,18.10
2017,06,23,08,51,18.20
2017,06,23,08,52,18.20
2017,06,23,08,53,18.20
2017,06,23,08,54,18.20
2017,06,23,08,55,18.20
2017,06,23,08,56,18.30
2017,06,23,08,57,18.50
2017,06,23,08,58,18.70
2017,06,23,08,59,18.70
2017,06,23,09,00,18.70
2017,06,23,09,01,18.70
2017,06,23,09,02,18.80
2017,06,23,09,03,18.80
2017,06,23,09,04,18.80
2017,06,23,09,05,18.80
2017,06,23,09,06,18.80
2017,06,23,09,07,18.70
2017,06,23,09,08,18.60
2017,06,23,09,09,18.50
2017,06,23,09,10,18.60
2017,06,23,09,11,18.50
2017,06,23,09,12,18.50
2017,06,23,09,13,18.50
2017,06,23,09,14,18.60
2017,06,23,09,15,18.50
2017,06,23,09,16,18.50
2017,06,23,09,17,18.60
2017,06,23,09,18,18.70
2017,06,23,09,19,18.60
2017,06,23,09,20,18.60
2017,06,23,09,21,18.60
2017,06,23,09,22,18.60
2017,06,23,09,23,18.60
2017,06,23,09,24,18.70
2017,06,23,09,25,18.70
2017,06,23,09,26,18.70
2017,06,23,09,27,18.60
2017,06,23,09,28,18.50
2017,06,23,09,29,18.50
2017,06,23,09,30,18.60
2017,06,23,09,31,18.70
2017,06,23,09,32,18.70
2017,06,23,09,33,18.80
2017,06,23,09,34,18.90
2017,06,23,09,35,19.00
2017,06,23,09,36,19.10
2017,06,23,09,37,19.00
2017,06,23,09,38,19.00
2017,06,23,09,39,18.90
2017,06,23,09,40,18.90
2017,06,23,09,41,18.90
2017,06,23,09,42,18.90
2017,06,23,09,43,19.00
2017,06,23,09,44,19.10
2017,06,23,09,45,19.10
2017,06,23,09,46,19.10
2017,06,23,09,47,19.20
2017,06,23,09,48,19.20
2017,06,23,09,49,19.20
2017,06,23,09,50,19.30
2017,06,23,09,51,19.30
2017,06,23,09,52,19.40
2017,06,23,09,53,19.50
2017,06,23,09,54,19.50
2017,06,23,09,55,19.40
2017,06,23,09,56,19.40
2017,06,23,09,57,19.30
2017,06,23,09,58,19.40
2017,06,23,09,59,19.40
2017,06,23,10,00,19.30
2017,06,23,10,01,19.30
2017,06,23,10,02,19.30
2017,06,23,10,03,19.20
2017,06,23,10,04,19.30
2017,06,23,10,05,19.30
2017,06,23,10,06,19.30
2017,06,23,10,07,19.30
2017,06,23,10,08,19.40
2017,06,23,10,09,19.40
2017,06,23,10,10,19.50
2017,06,23,10,11,19.50
2017,06,23,10,12,19.50
2017,06,23,10,13,19.60
2017,06,23,10,14,19.60
2017,06,23,10,15,19.60
2017,06,23,10,16,19.60
2017,06,23,10,17,19.60
2017,06,23,10,18,19.50
2017,06,23,10,19,19.40
2017,06,23,10,20,19.40
2017,06,23,10,21,19.60
2017,06,23,10,22,19.60
2017,06,23,10,23,19.70
2017,06,23,10,24,19.70
2017,06,23,10,25,19.70
2017,06,23,10,26,19.60
2017,06,23,10,27,19.70
2017,06,23,10,28,19.80
2017,06,23,10,29,19.80
2017,06,23,10,30,19.90
2017,06,23,10,31,20.00
2017,06,23,10,32,20.00
2017,06,23,10,33,20.10
2017,06,23,10,34,20.00
2017,06,23,10,35,19.90
2017,06,23,10,36,19.90
2017,06,23,10,37,19.90
2017,06,23,10,38,20.00
2017,06,23,10,39,20.00
2017,06,23,10,40,20.00
2017,06,23,10,41,19.90
2017,06,23,10,42,19.90
2017,06,23,10,43,19.80
2017,06,23,10,44,19.80
2017,06,23,10,45,19.80
2017,06,23,10,46,19.90
2017,06,23,10,47,19.90
2017,06,23,10,48,20.00
2017,06,23,10,49,20.00
2017,06,23,10,50,20.00
2017,06,23,10,51,20.00
2017,06,23,10,52,20.00
2017,06,23,10,53,19.90
2017,06,23,10,54,20.10
2017,06,23,10,55,20.20
2017,06,23,10,56,20.20
2017,06,23,10,57,20.30
2017,06,23,10,58,20.30
2017,06,23,10,59,20.30
2017,06,23,11,00,20.40
2017,06,23,11,01,20.40
2017,06,23,11,02,20.50
2017,06,23,11,03,20.50
2017,06,23,11,04,20.50
2017,06,23,11,05,20.40
2017,06,23,11,06,20.40
2017,06,23,11,07,20.50
2017,06,23,11,08,20.60
2017,06,23,11,09,20.60
2017,06,23,11,10,20.60
2017,06,23,11,11,20.50
2017,06,23,11,12,20.50
2017,06,23,11,13,20.60
2017,06,23,11,14,20.70
2017,06,23,11,15,20.80
2017,06,23,11,16,20.70
2017,06,23,11,17,20.60
2017,06,23,11,18,20.60
2017,06,23,11,19,20.50
2017,06,23,11,20,20.50
2017,06,23,11,21,20.50
2017,06,23,11,22,20.40
2017,06,23,11,23,20.30
2017,06,23,11,24,20.30
2017,06,23,11,25,20.30
2017,06,23,11,26,20.30
2017,06,23,11,27,20.40
2017,06,23,11,28,20.40
2017,06,23,11,29,20.50
2017,06,23,11,30,20.60
2017,06,23,11,31,20.50
2017,06,23,11,32,20.50
2017,06,23,11,33,20.60
2017,06,23,11,34,20.70
2017,06,23,11,35,20.80
2017,06,23,11,36,20.80
2017,06,23,11,37,20.70
2017,06,23,11,38,20.80
2017,06,23,11,39,21.00
2017,06,23,11,40,21.00
2017,06,23,11,41,21.00
2017,06,23,11,42,21.10
2017,06,23,11,43,21.10
2017,06,23,11,44,21.20
2017,06,23,11,45,21.20
2017,06,23,11,46,21.10
2017,06,23,11,47,21.10
2017,06,23,11,48,21.20
2017,06,23,11,49,21.10
2017,06,23,11,50,21.10
2017,06,23,11,51,21.00
2017,06,23,11,52,20.90
2017,06,23,11,53,20.90
2017,06,23,11,54,20.90
2017,06,23,11,55,21.00
2017,06,23,11,56,21.00
2017,06,23,11,57,21.10
2017,06,23,11,58,21.30
2017,06,23,11,59,21.40
2017,06,23,12,00,21.40
2017,06,23,12,01,21.30
2017,06,23,12,02,21.40
2017,06,23,12,03,21.50
2017,06,23,12,04,21.60
2017,06,23,12,05,21.60
2017,06,23,12,06,21.70
2017,06,23,12,07,21.60
2017,06,23,12,08,21.70
2017,06,23,12,09,21.70
2017,06,23,12,10,21.90
2017,06,23,12,11,22.00
2017,06,23,12,12,21.90
2017,06,23,12,13,21.80
2017,06,23,12,14,21.60
2017,06,23,12,15,21.40
2017,06,23,12,16,21.40
2017,06,23,12,17,21.40
2017,06,23,12,18,21.40
2017,06,23,12,19,21.30
2017,06,23,12,20,21.50
2017,06,23,12,21,21.60
2017,06,23,12,22,21.70
2017,06,23,12,23,21.80
2017,06,23,12,24,21.80
2017,06,23,12,25,21.90
2017,06,23,12,26,21.90
2017,06,23,12,27,21.90
2017,06,23,12,28,21.90
2017,06,23,12,29,21.80
2017,06,23,12,30,21.80
2017,06,23,12,31,21.80
2017,06,23,12,32,21.80
2017,06,23,12,33,21.90
2017,06,23,12,34,22.00
2017,06,23,12,35,21.90
2017,06,23,12,36,21.80
2017,06,23,12,37,21.80
2017,06,23,12,38,21.80
2017,06,23,12,39,21.80
2017,06,23,12,40,21.90
2017,06,23,12,41,21.90
2017,06,23,12,42,21.80
2017,06,23,12,43,21.70
2017,06,23,12,44,21.60
2017,06,23,12,45,21.50
2017,06,23,12,46,21.50
2017,06,23,12,47,21.60
2017,06,23,12,48,21.60
2017,06,23,12,49,21.50
2017,06,23,12,50,21.50
2017,06,23,12,51,21.60
2017,06,23,12,52,21.60
2017,06,23,12,53,21.60
2017,06,23,12,54,21.70
2017,06,23,12,55,21.70
2017,06,23,12,56,21.70
2017,06,23,12,57,21.70
2017,06,23,12,58,21.60
2017,06,23,12,59,21.60
2017,06,23,13,00,21.60
2017,06,23,13,01,21.70
2017,06,23,13,02,21.70
2017,06,23,13,03,21.80
2017,06,23,13,04,21.80
2017,06,23,13,05,21.80
2017,06,23,13,06,21.80
2017,06,23,13,07,21.80
2017,06,23,13,08,21.80
2017,06,23,13,09,21.90
2017,06,23,13,10,21.90
2017,06,23,13,11,22.00
2017,06,23,13,12,22.10
2017,06,23,13,13,22.10
2017,06,23,13,14,22.00
2017,06,23,13,15,21.90
2017,06,23,13,16,21.80
2017,06,23,13,17,21.70
2017,06,23,13,18,21.80
2017,06,23,13,19,22.00
2017,06,23,13,20,22.20
2017,06,23,13,21,22.30
2017,06,23,13,22,22.40
2017,06,23,13,23,22.50
2017,06,23,13,24,22.70
2017,06,23,13,25,22.70
2017,06,23,13,26,22.50
2017,06,23,13,27,22.40
2017,06,23,13,28,22.50
2017,06,23,13,29,22.60
2017,06,23,13,30,22.70
2017,06,23,13,31,22.70
2017,06,23,13,32,22.70
2017,06,23,13,33,22.70
2017,06,23,13,34,22.60
2017,06,23,13,35,22.40
2017,06,23,13,36,22.40
2017,06,23,13,37,22.30
2017,06,23,13,38,22.40
2017,06,23,13,39,22.50
2017,06,23,13,40,22.60
2017,06,23,13,41,22.80
2017,06,23,13,42,22.90
2017,06,23,13,43,23.00
2017,06,23,13,44,23.10
2017,06,23,13,45,23.10
2017,06,23,13,46,23.20
2017,06,23,13,47,23.30
2017,06,23,13,48,23.20
2017,06,23,13,49,23.10
2017,06,23,13,50,23.20
2017,06,23,13,51,23.30
2017,06,23,13,52,23.30
2017,06,23,13,53,23.40
2017,06,23,13,54,23.30
2017,06,23,13,55,23.20
2017,06,23,13,56,23.30
2017,06,23,13,57,23.40
2017,06,23,13,58,23.30
2017,06,23,13,59,23.30
2017,06,23,14,00,23.40
2017,06,23,14,01,23.40
2017,06,23,14,02,23.40
2017,06,23,14,03,23.40
2017,06,23,14,04,23.40
2017,06,23,14,05,23.30
2017,06,23,14,06,23.40
2017,06,23,14,07,23.50
2017,06,23,14,08,23.60
2017,06,23,14,09,23.70
2017,06,23,14,10,23.60
2017,06,23,14,11,23.60
2017,06,23,14,12,23.60
2017,06,23,14,13,23.60
2017,06,23,14,14,23.60
2017,06,23,14,15,23.70
2017,06,23,14,16,23.70
2017,06,23,14,17,23.70
2017,06,23,14,18,23.80
2017,06,23,14,19,23.90
2017,06,23,14,20,23.90
2017,06,23,14,21,23.80
2017,06,23,14,22,23.70
2017,06,23,14,23,23.70
2017,06,23,14,24,23.70
2017,06,23,14,25,23.70
2017,06,23,14,26,23.60
2017,06,23,14,27,23.60
2017,06,23,14,28,23.70
2017,06,23,14,29,23.70
2017,06,23,14,30,23.80
2017,06,23,14,31,23.90
2017,06,23,14,32,24.00
2017,06,23,14,33,23.90
2017,06,23,14,34,23.80
2017,06,23,14,35,23.90
2017,06,23,14,36,23.90
2017,06,23,14,37,23.90
2017,06,23,14,38,23.80
2017,06,23,14,39,23.80
2017,06,23,14,40,23.80
2017,06,23,14,41,23.80
2017,06,23,14,42,23.90
2017,06,23,14,43,24.00
2017,06,23,14,44,24.10
2017,06,23,14,45,24.40
2017,06,23,14,46,24.40
2017,06,23,14,47,24.40
2017,06,23,14,48,24.40
2017,06,23,14,49,24.40
2017,06,23,14,50,24.40
2017,06,23,14,51,24.40
2017,06,23,14,52,24.40
2017,06,23,14,53,24.50
2017,06,23,14,54,24.30
2017,06,23,14,55,24.20
2017,06,23,14,56,24.00
2017,06,23,14,57,23.70
2017,06,23,14,58,23.60
2017,06,23,14,59,23.50
2017,06,23,15,00,23.40
2017,06,23,15,01,23.30
2017,06,23,15,02,23.40
2017,06,23,15,03,23.50
2017,06,23,15,04,23.60
2017,06,23,15,05,23.70
2017,06,23,15,06,24.00
2017,06,23,15,07,24.10
2017,06,23,15,08,24.20
2017,06,23,15,09,24.30
2017,06,23,15,10,24.30
2017,06,23,15,11,24.30
2017,06,23,15,12,24.40
2017,06,23,15,13,24.40
2017,06,23,15,14,24.40
2017,06,23,15,15,24.40
2017,06,23,15,16,24.50
2017,06,23,15,17,24.50
2017,06,23,15,18,24.50
2017,06,23,15,19,24.40
2017,06,23,15,20,24.40
2017,06,23,15,21,24.40
2017,06,23,15,22,24.40
2017,06,23,15,23,24.40
2017,06,23,15,24,24.50
2017,06,23,15,25,24.50
2017,06,23,15,26,24.40
2017,06,23,15,27,24.40
2017,06,23,15,28,24.50
2017,06,23,15,29,24.60
2017,06,23,15,30,24.60
2017,06,23,15,31,24.60
2017,06,23,15,32,24.60
2017,06,23,15,33,24.60
2017,06,23,15,34,24.60
2017,06,23,15,35,24.60
2017,06,23,15,36,24.60
2017,06,23,15,37,24.60
2017,06,23,15,38,24.70
2017,06,23,15,39,24.70
2017,06,23,15,40,24.60
2017,06,23,15,41,24.60
2017,06,23,15,42,24.60
2017,06,23,15,43,24.70
2017,06,23,15,44,24.70
2017,06,23,15,45,24.70
2017,06,23,15,46,24.70
2017,06,23,15,47,24.80
2017,06,23,15,48,24.80
2017,06,23,15,49,24.90
2017,06,23,15,50,24.90
2017,06,23,15,51,25.00
2017,06,23,15,52,25.00
2017,06,23,15,53,24.90
2017,06,23,15,54,24.90
2017,06,23,15,55,24.90
2017,06,23,15,56,24.90
2017,06,23,15,57,24.90
2017,06,23,15,58,25.00
2017,06,23,15,59,25.00
2017,06,23,16,00,25.10
2017,06,23,16,01,25.10
2017,06,23,16,02,25.10
2017,06,23,16,03,25.00
2017,06,23,16,04,24.80
2017,06,23,16,05,24.70
2017,06,23,16,06,24.50
2017,06,23,16,07,24.50
2017,06,23,16,08,24.50
2017,06,23,16,09,24.60
2017,06,23,16,10,24.70
2017,06,23,16,11,24.80
2017,06,23,16,12,24.90
2017,06,23,16,13,24.90
2017,06,23,16,14,24.90
2017,06,23,16,15,24.90
2017,06,23,16,16,25.00
2017,06,23,16,17,25.00
2017,06,23,16,18,25.00
2017,06,23,16,19,25.00
2017,06,23,16,20,25.00
2017,06,23,16,21,25.10
2017,06,23,16,22,25.10
2017,06,23,16,23,25.10
2017,06,23,16,24,25.10
2017,06,23,16,25,25.00
2017,06,23,16,26,25.00
2017,06,23,16,27,25.00
2017,06,23,16,28,25.00
2017,06,23,16,29,25.00
2017,06,23,16,30,25.20
2017,06,23,16,31,25.20
2017,06,23,16,32,25.20
2017,06,23,16,33,25.30
2017,06,23,16,34,25.30
2017,06,23,16,35,25.30
2017,06,23,16,36,25.30
2017,06,23,16,37,25.20
2017,06,23,16,38,25.20
2017,06,23,16,39,25.30
2017,06,23,16,40,25.30
2017,06,23,16,41,25.30
2017,06,23,16,42,25.40
2017,06,23,16,43,25.50
2017,06,23,16,44,25.50
2017,06,23,16,45,25.50
2017,06,23,16,46,25.40
2017,06,23,16,47,25.40
2017,06,23,16,48,25.40
2017,06,23,16,49,25.30
2017,06,23,16,50,25.40
2017,06,23,16,51,25.40
2017,06,23,16,52,25.40
2017,06,23,16,53,25.30
2017,06,23,16,54,25.30
2017,06,23,16,55,25.30
2017,06,23,16,56,25.30
2017,06,23,16,57,25.30
2017,06,23,16,58,25.30
2017,06,23,16,59,25.50
2017,06,23,17,00,25.60
2017,06,23,17,01,25.60
2017,06,23,17,02,25.60
2017,06,23,17,03,25.60
2017,06,23,17,04,25.70
2017,06,23,17,05,25.70
2017,06,23,17,06,25.60
2017,06,23,17,07,25.60
2017,06,23,17,08,25.60
2017,06,23,17,09,25.50
2017,06,23,17,10,25.50
2017,06,23,17,11,25.50
2017,06,23,17,12,25.60
2017,06,23,17,13,25.60
2017,06,23,17,14,25.50
2017,06,23,17,15,25.40
2017,06,23,17,16,25.40
2017,06,23,17,17,25.40
2017,06,23,17,18,25.40
2017,06,23,17,19,25.40
2017,06,23,17,20,25.60
2017,06,23,17,21,25.60
2017,06,23,17,22,25.60
2017,06,23,17,23,25.50
2017,06,23,17,24,25.40
2017,06,23,17,25,25.40
2017,06,23,17,26,25.50
2017,06,23,17,27,25.60
2017,06,23,17,28,25.70
2017,06,23,17,29,25.80
2017,06,23,17,30,25.80
2017,06,23,17,31,25.80
2017,06,23,17,32,25.70
2017,06,23,17,33,25.70
2017,06,23,17,34,25.70
2017,06,23,17,35,25.60
2017,06,23,17,36,25.60
2017,06,23,17,37,25.60
2017,06,23,17,38,25.60
2017,06,23,17,39,25.60
2017,06,23,17,40,25.60
2017,06,23,17,41,25.50
2017,06,23,17,42,25.40
2017,06,23,17,43,25.40
2017,06,23,17,44,25.50
2017,06,23,17,45,25.50
2017,06,23,17,46,25.50
2017,06,23,17,47,25.40
2017,06,23,17,48,25.40
2017,06,23,17,49,25.40
2017,06,23,17,50,25.40
2017,06,23,17,51,25.40
2017,06,23,17,52,25.50
2017,06,23,17,53,25.60
2017,06,23,17,54,25.60
2017,06,23,17,55,25.60
2017,06,23,17,56,25.60
2017,06,23,17,57,25.50
2017,06,23,17,58,25.50
2017,06,23,17,59,25.50
2017,06,23,18,00,25.40
2017,06,23,18,01,25.40
2017,06,23,18,02,25.40
2017,06,23,18,03,25.40
2017,06,23,18,04,25.40
2017,06,23,18,05,25.40
2017,06,23,18,06,25.40
2017,06,23,18,07,25.40
2017,06,23,18,08,25.40
2017,06,23,18,09,25.30
2017,06,23,18,10,25.40
2017,06,23,18,11,25.40
2017,06,23,18,12,25.50
2017,06,23,18,13,25.60
2017,06,23,18,14,25.60
2017,06,23,18,15,25.60
2017,06,23,18,16,25.70
2017,06,23,18,17,25.70
2017,06,23,18,18,25.80
2017,06,23,18,19,25.80
2017,06,23,18,20,25.80
2017,06,23,18,21,25.90
2017,06,23,18,22,25.90
2017,06,23,18,23,25.90
2017,06,23,18,24,25.90
2017,06,23,18,25,25.90
2017,06,23,18,26,25.90
2017,06,23,18,27,25.80
2017,06,23,18,28,25.80
2017,06,23,18,29,25.70
2017,06,23,18,30,25.60
2017,06,23,18,31,25.40
2017,06,23,18,32,25.30
2017,06,23,18,33,25.00
2017,06,23,18,34,24.80
2017,06,23,18,35,24.60
2017,06,23,18,36,24.50
2017,06,23,18,37,24.40
2017,06,23,18,38,24.40
2017,06,23,18,39,24.30
2017,06,23,18,40,24.20
2017,06,23,18,41,24.20
2017,06,23,18,42,24.10
2017,06,23,18,43,24.10
2017,06,23,18,44,24.00
2017,06,23,18,45,24.00
2017,06,23,18,46,24.00
2017,06,23,18,47,23.90
2017,06,23,18,48,23.90
2017,06,23,18,49,23.80
2017,06,23,18,50,23.80
2017,06,23,18,51,23.80
2017,06,23,18,52,23.80
2017,06,23,18,53,23.80
2017,06,23,18,54,23.80
2017,06,23,18,55,23.80
2017,06,23,18,56,23.80
2017,06,23,18,57,23.80
2017,06,23,18,58,23.80
2017,06,23,18,59,23.80
2017,06,23,19,00,23.80
